Probability
0 0 0 0 0 0 0 0 0 0 0 0 0 0 0 0 0 0 0 0 1 2 2 1 0 0 0 0 0 0 0 0 0 0 0 0 1 0 0 0 0 0 0 0
0 0 0 0 0 0 0 0 0 0 0 0 0 0 0 0 0 0 0 0 0 1 1 0 0 0 0 0 0 0 0 0 0 0 0 0 1 0 0 0 0 0 0 0
0 0 0 0 0 0 0 0 0 0 0 0 0 0 0 0 0 0 0 0 0 0 0 0 0 0 0 0 0 0 0 0 0 0 0 0 0 0 0 0 0 0 0 0
0 0 0 0 0 0 0 0 0 0 0 0 0 0 0 0 0 0 0 0 0 0 0 0 0 0 0 0 0 0 0 0 0 0 1 0 0 0 0 0 0 0 0 0
0 0 0 0 0 0 0 0 0 0 0 0 0 0 0 0 0 0 0 0 0 0 0 0 0 0 0 0 0 0 0 0 0 0 0 0 0 0 0 0 0 0 0 0
0 0 0 0 0 0 0 0 0 0 0 0 0 0 0 0 0 0 0 0 0 0 0 0 0 0 0 0 0 0 0 0 0 0 0 0 0 0 0 0 0 0 0 0
0 0 0 0 0 0 0 0 0 0 0 0 0 0 0 0 0 0 0 0 0 0 0 0 0 0 0 0 0 0 0 0 0 0 0 0 0 0 0 0 0 0 0 0
0 0 0 0 0 0 0 0 0 0 0 0 0 0 0 0 0 0 0 0 0 0 0 0 0 0 0 0 0 0 0 0 0 0 0 0 0 0 0 0 0 0 0 0
0 0 0 0 0 0 0 0 0 0 0 0 0 0 0 0 0 0 0 0 0 0 0 0 0 0 0 0 0 0 0 0 0 0 0 0 0 0 0 0 0 0 0 0
0 0 0 0 0 0 0 0 0 0 0 0 0 0 0 0 0 0 0 0 0 0 0 0 0 0 0 0 0 0 0 0 0 0 0 0 0 0 0 0 0 0 0 0
0 0 0 0 0 0 0 0 0 0 0 0 0 0 0 0 0 0 0 0 0 0 0 0 0 0 0 0 0 0 0 0 0 0 0 0 0 0 0 0 0 0 0 0
0 0 0 0 0 0 0 0 0 0 0 0 0 0 0 0 0 0 0 0 0 0 0 0 0 0 0 0 0 0 0 0 0 0 0 0 0 0 0 0 0 0 0 0
0 0 0 0 0 0 0 0 0 0 0 0 0 0 0 0 0 0 0 0 0 0 0 0 0 0 0 0 0 0 0 0 0 0 0 0 0 0 0 0 0 0 0 0
0 0 0 0 0 0 0 0 0 0 0 0 0 0 0 0 0 0 0 0 0 0 0 0 0 0 0 0 0 0 0 0 0 0 0 0 0 0 0 0 0 0 0 0
0 0 0 0 0 0 0 0 0 0 0 0 0 0 0 0 0 0 0 0 0 0 0 0 0 0 0 0 0 0 0 0 0 0 0 0 0 0 0 0 0 0 0 0
0 0 0 0 0 0 0 0 0 0 0 0 0 0 0 0 0 0 0 0 0 0 0 0 0 0 0 0 0 0 0 0 0 0 0 0 0 0 0 0 0 0 0 0
0 0 0 0 0 0 0 0 0 0 0 0 0 0 0 0 0 0 0 0 0 0 0 0 0 0 0 0 0 0 0 0 0 0 0 0 0 0 0 0 0 0 0 0
0 0 0 0 0 0 0 0 0 0 0 0 0 0 0 0 0 0 0 0 0 0 0 0 0 0 0 0 0 0 0 0 0 0 0 0 0 0 0 0 0 0 0 0
0 0 0 0 0 0 0 0 0 0 0 0 0 0 0 0 0 0 0 0 0 0 0 0 0 0 0 0 0 0 0 0 0 0 0 0 0 0 0 0 0 0 0 0
0 0 0 0 0 0 0 0 0 0 0 0 0 0 0 0 0 0 0 0 0 0 0 0 0 0 0 0 0 0 0 0 0 0 0 0 0 0 0 0 0 0 0 0
0 0 0 0 0 0 0 0 0 0 0 0 0 0 0 0 0 0 0 0 0 0 0 0 0 0 0 0 0 0 0 0 0 0 0 0 0 0 0 0 0 0 0 0
0 0 0 0 0 0 0 0 0 0 0 0 0 0 0 0 0 0 0 0 0 0 0 0 0 0 0 0 0 0 0 0 0 0 0 0 0 0 0 0 0 0 0 0
0 0 0 0 0 0 0 0 0 0 0 0 0 0 0 0 0 0 0 0 0 0 0 0 0 0 0 0 0 0 0 0 0 0 0 0 0 0 0 0 0 0 0 0
0 0 0 0 0 0 0 0 0 0 0 0 0 0 0 0 0 0 0 0 0 0 0 0 0 0 0 0 0 0 0 0 0 0 0 0 0 0 0 0 0 0 0 0
0 0 0 0 0 0 0 0 0 0 0 0 0 0 0 0 0 0 0 0 0 0 0 0 0 0 0 0 0 0 0 0 0 0 0 0 0 0 0 0 0 0 0 0
0 0 0 0 0 0 0 0 0 0 0 0 0 0 0 0 0 0 0 0 0 0 0 0 0 0 0 0 0 0 0 0 0 0 0 0 0 0 0 0 0 0 0 0
Wind_Speed
3 1 1 3 3 4 5 6 6 5 3 3 5 7 5 3 3 2 2 2 4 4 5 5 5 5 5 4 5 4 3 2 2 1 1 1 1 1 1 1 2 2 2 2
1 2 2 4 4 5 6 6 6 4 3 4 5 8 6 3 3 3 2 2 3 4 5 5 5 5 4 4 4 3 3 3 1 1 1 1 2 1 1 1 1 1 1 2
2 1 3 4 5 5 5 5 6 6 7 5 4 6 4 3 3 3 2 2 3 4 5 5 5 5 4 3 3 2 3 3 2 2 2 2 2 1 1 1 1 1 1 1
1 1 3 3 4 5 4 4 6 6 5 4 2 4 4 3 4 4 4 3 3 3 4 4 5 5 4 3 3 3 2 2 2 3 3 2 2 1 1 1 1 0 0 0
2 1 3 3 3 5 3 6 7 6 5 5 3 3 5 2 2 4 4 4 4 3 4 4 4 4 4 4 3 3 3 2 2 2 2 2 1 1 1 1 1 0 0 0
3 1 2 2 3 3 4 5 6 4 1 3 5 4 4 1 2 3 4 4 4 4 4 4 4 4 4 4 3 3 3 2 2 2 2 1 1 1 1 1 1 1 0 0
2 3 2 1 3 2 3 2 2 2 1 5 1 2 5 1 2 3 4 5 4 4 4 4 5 4 4 4 4 3 3 2 2 2 1 1 1 1 2 2 2 1 1 1
2 2 3 1 2 2 2 1 0 2 3 3 1 4 3 3 3 3 4 4 4 4 3 4 5 5 4 4 4 4 3 2 2 2 1 1 1 1 1 1 1 1 1 1
2 2 1 1 1 3 2 1 1 1 4 4 4 3 2 2 3 3 3 3 3 3 4 4 4 5 5 4 4 4 3 3 2 2 2 2 2 1 1 1 1 1 1 1
3 3 2 2 1 3 3 3 0 1 2 4 5 3 2 2 3 3 2 2 2 2 3 3 3 4 4 4 4 4 4 3 3 2 2 2 1 1 1 1 2 2 2 1
3 3 2 2 4 4 3 2 2 2 2 2 4 3 1 2 2 2 2 2 2 2 2 2 2 3 3 3 3 3 3 3 2 2 2 2 1 1 1 1 2 2 2 2
1 2 4 4 1 1 2 3 3 2 4 3 3 5 2 3 3 2 2 2 2 2 1 1 2 2 2 3 3 3 3 3 3 2 2 2 2 2 2 2 2 2 2 2
1 2 3 2 0 0 3 4 4 3 2 3 4 6 1 2 2 1 1 1 1 2 1 1 2 2 2 3 3 3 3 3 2 2 2 2 2 2 2 2 2 2 2 2
2 4 6 6 4 2 5 5 5 4 4 5 8 8 3 1 0 0 1 2 2 2 1 1 1 2 2 3 3 3 3 3 2 2 2 2 3 3 3 2 2 2 2 3
3 5 7 10 9 8 8 8 8 10 9 8 8 7 7 3 2 2 1 1 2 2 2 2 2 1 2 2 2 2 2 2 2 2 2 3 2 2 2 2 2 2 3 3
3 5 6 9 9 9 11 11 11 12 11 12 11 11 6 4 3 2 1 1 2 2 2 2 2 2 2 2 2 2 3 3 3 3 3 3 2 2 2 3 2 3 3 3
4 3 3 5 5 6 10 10 11 9 8 7 10 9 4 3 3 3 2 2 3 2 2 2 2 3 3 3 2 3 3 2 3 3 3 3 3 3 3 3 3 3 3 3
5 4 3 4 4 9 6 1 4 6 7 7 6 5 4 3 2 2 1 2 2 2 2 2 2 2 2 1 2 2 2 3 3 3 3 3 3 3 3 3 3 4 3 3
6 5 4 3 5 9 5 2 2 3 5 4 5 4 3 2 3 2 1 1 2 3 2 2 2 2 2 2 2 1 2 3 3 4 4 3 3 3 3 4 4 4 3 3
2 4 4 5 5 7 2 2 2 1 4 1 1 2 2 2 2 3 2 2 3 3 2 2 2 2 2 2 2 2 3 3 4 4 3 3 3 3 4 4 4 3 3 4
3 4 8 8 8 7 1 2 2 2 3 1 1 1 2 2 3 3 3 3 3 4 3 2 2 2 3 2 2 3 3 4 4 3 3 3 3 4 4 4 3 3 3 3
7 6 7 6 7 8 1 2 2 2 2 2 2 2 3 3 3 3 3 4 4 4 3 2 2 3 2 2 2 3 4 4 3 2 3 3 3 3 3 3 3 3 3 3
7 6 4 7 6 3 2 2 1 2 2 2 3 3 3 4 5 5 4 4 4 4 3 2 2 3 3 3 3 4 4 3 2 3 3 3 3 3 3 3 4 3 3 3
4 3 3 5 5 3 2 2 2 2 2 3 3 4 4 5 6 6 5 5 4 4 3 3 3 4 4 3 3 4 3 2 2 3 3 3 3 3 3 3 3 3 3 3
4 3 5 7 6 5 4 2 2 3 3 4 4 4 4 5 6 6 5 5 4 4 4 3 3 4 4 4 4 3 3 2 3 3 4 4 4 4 3 3 3 4 4 4
5 6 7 7 4 4 4 3 2 3 4 4 4 5 5 5 6 6 5 5 4 4 4 4 4 4 4 4 4 4 3 3 4 4 4 3 3 3 3 3 3 5 6 7
Wind_Direction
203 238 294 313 306 296 300 291 293 303 322 306 276 280 279 236 200 208 185 170 152 138 129 123 120 119 118 112 109 110 115 114 113 118 114 114 114 83 69 61 62 38 9 3
243 262 322 327 319 308 302 299 299 317 345 312 284 279 269 211 188 187 182 172 155 139 138 130 122 114 114 115 113 120 123 120 122 108 99 98 93 84 89 61 52 40 10 359
286 321 328 311 316 310 312 307 319 321 315 274 275 288 250 196 166 169 175 153 152 153 147 141 134 129 129 131 129 131 124 126 124 108 94 79 67 54 60 74 51 3 18 15
315 332 318 311 318 326 302 328 320 312 312 295 292 292 267 181 171 185 185 167 152 147 138 141 140 140 144 141 132 125 125 135 136 125 128 140 151 164 190 161 113 60 63 25
300 350 318 305 332 327 309 317 301 288 283 292 266 252 275 172 184 193 175 160 147 151 148 151 147 147 147 138 134 131 136 148 136 129 140 143 154 162 144 123 113 64 320 295
248 277 327 326 324 299 299 290 279 261 274 271 238 213 276 214 201 171 152 145 146 145 149 151 141 136 139 134 129 134 143 144 132 139 138 151 175 173 161 185 182 189 230 269
250 189 165 275 296 268 287 324 347 339 249 251 217 202 250 157 90 126 142 142 147 149 156 160 153 152 147 144 147 151 146 142 147 151 152 173 205 205 196 203 198 194 214 231
280 263 160 179 294 300 281 315 156 283 287 303 284 232 238 107 80 81 107 123 134 143 152 158 158 156 156 156 156 156 156 159 163 165 178 193 214 219 207 209 208 194 209 223
298 274 89 162 285 307 290 260 295 281 283 274 256 220 139 114 105 99 108 119 135 144 150 155 159 158 161 163 164 162 163 166 170 175 178 197 206 212 203 204 207 205 218 221
308 287 250 158 210 236 283 311 304 221 288 290 285 258 227 165 171 151 142 143 143 134 138 150 158 156 157 164 165 163 170 175 176 180 191 194 200 215 214 202 206 211 223 222
286 263 264 217 214 213 202 232 237 254 249 256 293 286 21 114 136 148 153 140 137 137 148 158 158 153 153 157 163 170 176 171 175 188 196 194 202 212 217 218 219 213 223 223
260 275 262 248 233 47 225 226 201 212 258 238 260 273 58 75 82 95 124 137 137 136 147 155 152 154 158 168 172 179 182 177 184 190 199 201 204 213 220 231 235 223 227 229
301 259 289 286 242 223 256 249 248 261 272 242 237 259 117 81 77 89 119 149 149 143 151 164 166 171 178 185 185 184 179 182 188 192 199 208 213 217 225 235 242 232 231 232
279 249 230 245 271 256 257 250 231 216 222 243 236 257 276 292 272 224 194 181 175 174 180 195 198 197 192 192 188 183 187 182 186 193 205 220 226 224 226 234 239 235 234 231
226 253 257 266 274 273 261 252 235 229 230 236 254 262 279 293 290 275 225 195 193 204 208 211 214 226 216 200 194 186 188 188 189 194 216 231 234 233 232 236 241 241 238 238
235 260 277 270 259 258 262 252 243 239 239 247 264 271 277 294 307 305 292 250 246 228 216 226 238 236 232 217 206 197 199 202 195 203 223 230 231 234 236 237 240 243 242 240
229 246 266 268 271 283 262 238 227 228 224 223 245 258 281 288 290 290 296 289 265 258 255 245 253 243 238 225 205 211 210 205 202 215 226 229 228 230 237 240 240 243 242 241
223 239 257 278 295 249 242 162 199 217 234 226 241 268 285 285 292 291 298 303 308 306 298 284 279 276 268 256 231 217 207 211 212 218 227 228 228 232 237 238 240 244 240 238
217 215 236 251 260 271 263 221 184 220 259 235 243 271 303 333 330 302 339 348 313 311 314 305 293 286 272 258 245 225 227 225 222 222 226 225 225 232 236 239 246 247 244 247
224 222 227 231 242 251 267 62 45 39 273 301 242 275 312 356 305 281 334 339 326 316 313 308 302 293 271 266 242 230 237 235 232 228 228 225 228 234 239 242 247 247 244 247
186 208 221 234 244 260 276 120 104 195 259 0 6 330 313 271 260 287 330 324 312 308 303 297 291 282 270 261 243 242 244 242 242 239 233 227 228 235 241 244 243 244 245 248
188 196 208 213 231 247 156 122 191 250 354 1 349 334 311 294 298 303 298 294 294 295 295 289 285 283 279 262 243 247 248 247 244 244 242 238 236 240 241 237 243 240 235 245
205 205 205 209 227 261 176 197 254 334 322 327 324 321 308 298 294 296 298 298 292 289 294 294 276 278 276 261 240 248 254 243 235 239 245 247 247 245 238 233 240 243 231 232
236 233 263 272 268 273 265 276 296 312 304 306 300 299 298 293 294 295 295 295 293 288 285 278 265 262 267 262 247 247 252 237 229 239 250 248 244 249 246 240 236 236 231 231
249 220 249 260 270 286 269 268 297 311 304 297 297 296 291 288 286 285 286 285 283 282 276 268 259 259 264 266 262 255 244 230 234 242 249 248 241 240 243 242 237 238 235 228
225 225 232 249 253 262 279 294 298 295 290 287 290 292 292 284 281 283 281 279 280 281 280 275 266 262 265 264 263 260 245 230 232 242 246 241 237 238 237 244 264 258 250 256